GFSNIL_sfc_rhum_036.txt.gz
RH
95 98 96 94 95 94 93 91 85 80 77 75 75 74 70 67 71 61 62 48 45 46
94 97 97 96 94 95 94 93 89 81 83 82 76 72 64 62 61 57 56 60 64 62
94 97 97 97 98 96 94 89 86 83 81 77 73 65 57 55 52 55 60 60 54 54
98 98 98 98 96 92 88 86 82 76 73 68 64 56 48 48 46 50 57 63 55 55
98 97 97 96 91 84 82 75 67 68 65 58 54 48 45 42 48 55 59 70 73 75
94 92 91 87 79 72 72 68 63 56 56 57 61 59 58 61 69 74 72 75 72 70
91 88 82 71 67 65 62 65 63 62 64 69 72 76 78 81 85 83 81 80 78 73
81 71 67 71 72 73 76 76 72 74 74 74 75 77 84 84 86 86 88 86 83 86
72 73 73 75 74 74 76 76 78 79 80 85 81 85 80 72 76 80 87 96 97 82
77 80 83 82 82 86 87 86 90 88 88 90 88 84 86 92 97 98 98 95 79 72
86 88 89 91 92 92 92 92 96 96 97 98 98 95 97 96 96 94 83 67 65 69
89 90 92 97 98 97 96 98 99 98 100 100 100 96 91 89 66 59 62 64 71 77
96 97 98 99 99 99 99 100 98 100 100 99 99 88 80 60 60 68 65 74 70 64
98 97 97 99 99 99 98 98 97 91 71 69 60 58 46 63 61 62 68 70 72 69

GFSNIL_sfc_rhum_042.txt.gz
RH
44 43 42 49 53 54 56 65 73 80 84 82 78 77 77 78 78 75 77 68 57 52
49 53 52 50 48 53 54 59 63 71 80 81 79 78 79 83 82 78 76 74 67 63
61 60 62 62 61 58 55 57 64 70 73 78 79 78 78 81 77 76 76 74 71 64
59 60 64 75 78 80 78 74 73 72 74 75 75 75 78 78 77 73 69 66 69 73
59 61 62 65 70 72 76 74 74 74 74 73 73 71 72 69 65 69 75 79 81 84
62 64 65 64 65 65 68 68 68 70 70 68 67 64 61 59 64 70 76 78 79 85
63 63 61 60 60 61 61 60 61 59 59 59 54 55 57 68 75 78 76 79 79 75
63 63 64 67 70 68 67 71 70 69 67 65 67 71 76 81 84 89 94 95 97 100
69 71 75 77 80 83 82 81 84 84 87 89 82 84 82 83 87 89 92 98 100 99
75 76 82 82 88 93 94 91 94 94 93 94 91 88 89 89 94 98 100 98 99 98
84 85 88 91 94 95 96 98 99 98 96 97 93 92 94 97 99 98 97 96 86 76
96 96 96 98 99 100 98 99 100 100 100 100 99 97 97 97 96 92 86 78 70 59
96 97 99 99 99 100 100 100 98 100 100 97 98 84 73 64 56 51 52 52 52 57
95 97 98 100 100 100 100 100 100 98 84 75 73 65 60 53 43 45 47 47 42 42

GFSNIL_sfc_rhum_045.txt.gz
RH
40 41 40 37 38 46 48 49 58 77 85 86 85 87 87 88 85 80 82 82 75 67
42 45 47 47 44 44 42 46 50 57 81 86 88 89 90 93 91 89 86 86 84 82
49 48 51 52 56 57 55 52 52 55 60 77 88 89 91 94 94 94 93 92 87 78
52 52 52 53 55 61 66 70 71 69 71 73 84 85 88 92 93 95 91 85 80 78
53 54 55 56 58 58 65 68 71 73 76 72 79 81 85 88 86 85 84 80 81 79
55 56 56 57 58 58 60 63 65 69 69 69 72 81 79 76 76 81 80 80 83 87
60 60 60 62 63 63 62 60 59 57 60 62 60 63 70 77 81 84 81 83 84 86
63 64 66 69 73 72 73 73 68 66 66 66 70 74 84 84 85 89 94 96 96 99
66 70 74 77 81 82 85 84 84 84 84 84 82 83 82 82 88 90 95 98 100 99
71 75 80 81 88 93 94 91 95 95 93 95 92 88 89 92 95 98 99 99 99 98
82 86 89 88 95 96 96 97 100 98 97 98 97 96 97 97 99 99 99 99 96 84
95 93 95 97 99 98 97 99 100 99 100 100 99 97 98 98 99 98 93 79 69 60
95 96 99 99 99 100 99 99 96 100 100 95 97 85 84 76 57 51 53 53 57 56
92 94 97 100 100 98 98 97 98 96 82 71 64 58 58 52 47 50 50 50 45 48

GFSNIL_sfc_rhum_048.txt.gz
RH
58 65 65 65 64 64 65 68 66 90 93 93 92 94 93 97 95 93 94 89 91 81
68 69 73 73 74 78 75 68 75 77 91 94 95 96 97 97 97 98 97 95 96 95
70 71 72 73 78 81 84 83 86 88 90 86 92 94 97 98 97 99 98 98 98 96
73 74 75 79 80 82 86 86 83 81 89 88 87 91 95 96 96 98 97 97 95 93
71 73 75 75 76 74 82 81 80 80 78 80 82 86 90 90 92 93 94 92 92 89
76 77 80 80 76 73 75 75 72 69 65 66 72 77 80 80 87 86 86 87 89 91
81 80 80 81 82 82 81 75 68 66 68 72 74 80 86 87 92 90 90 90 91 92
81 80 82 83 90 89 88 84 78 77 77 76 76 78 88 88 92 94 97 97 97 100
79 77 80 82 83 86 91 93 90 92 91 90 84 83 84 90 93 94 97 98 100 99
77 82 85 87 92 93 95 94 97 95 93 94 90 87 90 92 96 98 100 100 100 100
86 91 93 95 97 97 97 98 99 98 97 98 95 94 92 93 98 98 99 99 100 98
92 94 96 99 98 98 97 99 99 97 98 100 98 91 91 98 97 96 96 89 71 66
96 90 99 98 99 100 97 98 93 99 97 82 96 70 70 81 85 84 77 81 71 51
91 96 96 98 100 96 97 96 96 96 97 90 76 75 61 56 67 66 64 60 59 70

GFSNIL_sfc_rhum_051.txt.gz
RH
75 78 79 82 84 89 88 90 91 92 93 94 95 95 95 97 98 98 98 96 92 85
77 80 81 81 87 90 92 79 92 93 93 94 96 95 93 96 97 99 98 98 98 98
81 81 86 87 90 90 93 89 91 92 93 92 93 95 95 94 97 98 99 99 99 99
81 81 82 82 83 87 89 87 85 88 91 92 93 94 95 96 96 97 98 97 98 96
80 83 86 84 83 81 83 77 76 76 75 76 80 80 89 90 90 95 95 93 92 92
85 87 90 90 86 83 85 82 77 77 76 70 74 77 81 83 86 86 88 88 90 91
90 90 92 92 91 90 90 89 83 71 72 76 78 80 83 86 89 90 92 92 93 93
88 86 83 80 88 93 96 96 94 89 83 80 80 79 92 92 92 95 97 97 97 99
84 79 85 87 88 88 91 90 89 91 91 90 82 83 87 93 95 94 97 98 100 99
82 86 90 89 93 96 97 96 97 97 93 95 91 87 88 96 97 98 100 100 100 98
88 92 93 96 97 98 98 99 99 98 97 97 91 87 87 89 97 98 99 99 99 98
86 96 97 99 98 98 98 99 99 98 100 99 95 82 86 92 98 97 97 86 76 72
88 97 99 98 99 99 98 97 94 98 98 77 94 59 63 79 82 83 80 83 69 55
91 94 96 99 100 97 97 99 96 98 97 86 82 78 62 60 70 65 63 62 62 70

GFSNIL_sfc_rhum_054.txt.gz
RH
83 85 84 87 93 95 95 96 94 94 94 95 97 97 96 97 93 96 99 99 98 93
85 88 92 93 94 96 95 81 93 94 94 94 94 96 97 97 94 95 96 99 98 98
84 83 85 84 87 91 92 87 89 92 94 94 94 95 96 97 97 96 98 99 99 99
86 85 84 86 87 87 83 81 82 82 86 87 92 94 96 95 96 97 97 95 97 96
84 87 91 90 89 87 88 82 80 80 79 80 84 89 92 93 93 89 92 92 92 92
90 94 96 95 91 89 90 88 84 83 84 83 84 85 83 84 86 88 89 90 90 91
94 96 96 95 97 97 96 96 94 91 88 85 80 82 84 87 90 90 92 91 92 93
91 80 80 84 86 91 88 91 94 95 92 83 79 81 94 97 97 96 96 98 98 99
86 83 85 86 88 88 91 92 90 91 91 88 81 84 88 92 96 97 97 98 99 98
83 88 90 91 96 97 97 96 97 98 94 94 89 88 93 94 97 98 100 99 98 96
90 92 94 96 97 98 98 98 100 99 97 96 88 84 85 93 97 97 97 98 98 95
91 97 97 98 98 98 98 99 99 97 95 93 90 70 73 89 97 96 94 83 79 73
96 97 99 98 99 99 96 94 98 98 98 77 93 60 62 74 75 84 76 75 65 62
92 96 97 99 98 94 97 96 97 98 95 88 81 79 59 59 70 65 64 63 66 65

GFSNIL_sfc_rhum_057.txt.gz
RH
90 93 94 94 96 97 97 97 94 94 94 95 95 98 98 99 98 98 99 99 99 98
94 94 94 93 95 96 94 78 92 94 94 94 95 96 97 99 97 96 97 98 97 98
90 87 88 87 88 88 85 82 85 87 90 91 92 95 96 97 97 98 98 98 97 98
90 89 88 89 90 88 84 82 82 82 82 86 90 93 95 94 95 96 96 96 96 94
88 91 93 92 90 89 89 85 85 85 86 87 89 93 94 95 94 95 96 95 91 91
94 96 97 97 96 94 94 94 91 90 92 90 89 89 90 92 93 92 90 90 91 92
96 96 90 92 97 96 96 97 96 96 94 91 88 87 86 88 92 93 94 94 96 94
92 80 81 84 86 86 87 88 95 90 81 79 78 84 94 89 89 94 98 98 97 98
86 84 85 88 89 89 91 91 90 92 90 90 84 87 86 94 97 97 97 98 99 96
85 88 91 92 94 95 97 94 96 95 92 93 90 89 90 96 97 98 98 96 95 91
89 92 94 95 97 98 95 97 100 97 94 92 84 81 86 91 95 97 98 99 95 93
91 96 97 98 99 98 96 98 97 92 93 93 90 67 71 87 96 95 93 74 78 74
94 97 99 97 98 98 95 96 98 97 97 78 94 62 61 70 73 78 64 65 61 63
97 97 97 99 97 95 96 98 98 98 94 88 82 79 56 62 68 64 65 66 72 75

GFSNIL_sfc_rhum_060.txt.gz
RH
92 95 97 96 97 97 97 96 94 94 95 95 95 96 94 99 99 99 99 99 99 98
94 94 94 93 94 94 90 76 89 93 93 94 94 96 97 96 96 97 99 99 98 98
92 91 90 89 90 87 84 82 83 83 86 89 91 94 95 97 95 95 95 97 96 95
93 92 92 93 94 92 87 86 86 86 87 89 92 94 95 95 96 96 96 96 96 96
93 94 96 96 95 93 93 90 91 90 90 91 94 95 95 96 96 96 96 96 95 94
96 96 98 98 97 96 95 96 95 94 95 94 92 94 93 93 94 95 95 92 90 90
96 96 86 90 91 90 95 96 96 94 92 90 93 94 90 89 92 94 94 94 96 94
94 81 82 85 87 87 87 89 88 84 80 80 83 84 89 91 93 96 97 96 95 95
86 84 86 88 89 89 90 91 91 91 90 91 82 84 87 93 94 91 92 96 96 86
85 88 91 91 91 95 95 93 95 95 92 93 91 87 90 90 94 94 94 94 95 88
90 93 93 94 97 95 94 98 99 94 88 90 79 80 81 83 95 96 96 96 94 92
90 94 96 97 98 96 95 97 94 91 94 94 90 68 72 86 96 94 91 71 78 79
92 95 98 98 98 98 94 93 96 97 97 81 93 61 61 69 68 72 61 66 66 66
96 96 95 98 97 96 97 98 100 98 93 87 83 80 56 65 64 64 65 68 76 76

GFSNIL_sfc_rhum_063.txt.gz
RH
79 78 81 83 81 78 78 76 75 78 78 77 78 82 87 92 95 97 99 98 96 93
76 78 79 78 78 73 70 64 70 72 75 76 77 80 84 86 92 92 96 97 97 98
75 74 74 73 74 72 68 69 70 70 72 74 76 78 80 85 86 87 90 93 91 92
75 76 76 75 76 75 72 72 73 73 73 75 76 77 78 81 82 83 86 87 88 88
77 78 78 79 79 76 76 75 76 76 77 77 79 79 79 81 82 82 83 82 82 83
80 81 83 84 83 80 80 81 80 79 79 79 81 81 81 80 80 82 81 80 81 82
83 83 80 84 82 81 82 81 79 78 78 82 85 83 82 84 88 89 92 92 87 83
84 76 78 82 83 82 81 81 78 77 78 78 80 81 88 88 89 90 92 92 88 90
81 80 81 82 86 86 88 87 85 86 86 84 79 83 87 85 85 86 88 89 87 76
81 84 88 88 88 91 92 91 92 91 87 87 84 84 83 86 82 86 92 90 87 81
85 88 90 91 93 92 93 95 97 89 85 83 81 80 78 79 86 88 86 82 80 77
87 91 92 95 95 93 94 96 94 85 91 92 82 70 71 76 76 77 70 60 62 61
88 91 96 96 97 98 93 90 83 92 91 78 81 64 65 66 49 48 46 50 54 64
90 94 95 98 98 99 96 94 96 91 82 73 68 64 66 62 48 48 51 53 57 61

GFSNIL_sfc_rhum_066.txt.gz
RH
57 54 54 60 57 56 57 57 59 61 61 60 60 64 68 74 78 83 92 94 96 94
57 60 61 64 62 57 55 53 55 57 59 60 61 63 67 71 76 84 91 95 96 98
57 58 59 58 59 59 55 56 57 57 57 58 59 61 64 70 73 76 81 88 87 91
56 57 56 56 58 58 57 58 59 58 59 59 60 59 61 65 69 71 74 76 77 81
57 58 57 56 58 57 59 59 60 61 61 61 63 62 63 65 67 68 72 72 74 75
59 59 59 60 61 60 60 60 61 61 61 62 66 65 65 65 65 68 69 70 70 72
62 62 64 67 69 67 64 63 62 62 64 67 69 70 69 70 75 78 79 77 73 72
64 63 65 71 74 76 72 69 69 70 72 70 72 76 80 80 84 87 90 85 82 85
65 66 70 73 76 79 82 80 79 80 79 80 74 86 85 80 81 82 82 84 81 71
66 68 75 77 82 86 88 86 87 85 81 82 78 82 84 79 81 88 95 93 84 71
70 72 78 84 87 90 91 92 96 90 84 84 82 82 77 78 86 92 90 84 76 67
71 77 82 90 92 91 94 96 96 87 96 96 76 73 69 64 65 75 67 53 48 51
76 80 89 90 96 98 94 91 82 95 93 73 69 66 65 57 40 34 35 38 50 65
78 85 92 97 97 100 100 98 98 91 79 65 57 53 60 55 35 34 37 39 41 46

GFSNIL_sfc_rhum_069.txt.gz
RH
48 47 48 52 52 52 54 55 57 59 58 58 58 60 62 70 75 76 84 87 89 90
49 52 52 57 56 55 54 53 53 56 57 58 58 59 62 65 70 79 82 91 96 98
52 54 55 55 56 56 54 54 56 56 55 55 55 57 60 66 68 72 76 87 89 91
52 53 53 54 55 56 56 55 56 55 56 55 56 55 57 60 64 69 73 75 78 81
52 54 54 52 54 53 55 54 56 57 58 58 59 59 60 62 64 66 71 72 73 74
53 54 54 54 56 56 56 56 57 59 59 58 61 62 62 61 62 65 68 70 72 73
57 57 56 58 62 62 60 60 59 59 60 65 65 66 65 66 70 74 76 76 75 74
58 58 61 66 68 69 69 66 66 66 68 68 67 70 75 76 79 84 84 82 84 87
59 59 62 66 70 72 76 77 76 77 77 77 69 85 82 77 81 82 84 87 84 77
60 62 67 69 73 78 82 83 86 84 80 79 80 84 82 80 87 93 98 99 91 75
62 65 69 75 78 82 87 92 97 91 86 84 81 82 82 84 93 96 95 93 82 73
64 69 75 82 85 88 93 98 99 95 100 98 80 75 68 70 77 83 75 59 50 54
69 72 80 81 90 98 96 97 94 99 97 74 75 67 62 60 49 45 44 44 57 62
72 80 83 94 96 100 100 100 100 95 82 69 64 57 62 56 40 40 42 45 46 55

GFSNIL_sfc_rhum_072.txt.gz
RH
60 69 64 65 71 73 75 79 73 75 74 73 72 74 76 83 89 92 94 88 95 98
63 65 71 71 75 76 73 62 67 70 71 73 72 72 75 82 85 89 90 93 95 97
66 66 68 71 73 71 71 68 70 71 71 70 70 71 74 82 84 86 92 92 94 95
68 68 66 68 70 71 70 70 70 69 70 70 72 72 75 78 78 82 86 86 88 89
67 66 68 66 67 66 69 68 70 71 71 71 73 77 80 79 80 83 86 86 86 85
70 68 68 68 66 66 68 71 72 71 74 72 74 76 78 78 81 85 86 85 84 81
75 73 72 70 72 74 73 73 74 73 75 77 78 79 81 81 88 88 89 92 88 85
76 74 77 81 81 79 80 78 80 79 76 74 76 72 84 81 85 91 92 90 91 92
74 75 80 83 86 88 89 89 82 82 82 84 71 83 82 82 88 87 87 89 86 83
74 77 83 83 79 82 82 91 91 88 85 85 88 84 83 83 92 95 98 98 89 77
78 80 86 81 82 85 90 96 98 93 90 90 86 83 86 90 97 97 96 93 87 80
80 84 88 88 88 90 96 99 99 98 100 99 91 78 78 84 92 92 81 65 66 67
82 86 91 90 94 99 98 99 99 100 100 87 90 74 64 68 73 71 62 55 72 60
87 89 91 94 99 100 100 100 100 98 93 85 81 77 63 57 49 47 49 52 57 77

GFSNIL_sfc_rhum_075.txt.gz
RH
60 63 67 70 71 74 83 82 77 79 78 78 75 77 80 85 89 92 96 94 95 98
68 70 73 73 79 79 76 68 74 74 74 75 77 77 79 85 87 92 93 95 94 96
70 71 72 78 74 73 75 72 73 75 75 74 74 76 79 84 88 88 92 96 94 95
71 71 71 75 73 75 76 73 72 72 73 74 75 77 80 83 83 85 90 91 88 90
74 74 76 75 72 70 74 73 72 73 74 74 77 81 85 84 85 86 90 90 92 86
80 79 78 78 76 72 73 73 73 72 77 76 79 80 83 83 88 90 90 89 88 87
83 81 82 81 81 81 79 79 80 79 80 81 81 82 85 87 93 94 94 93 92 91
83 82 84 86 88 88 87 86 84 84 83 80 77 76 88 84 87 89 91 95 93 93
81 82 86 89 91 91 91 91 89 89 86 84 72 81 81 83 90 88 89 92 89 89
82 84 90 91 92 92 90 88 93 93 90 87 89 85 84 84 91 94 96 93 87 78
84 86 92 92 91 90 88 92 98 94 90 91 90 84 87 93 99 100 98 95 87 78
85 89 93 93 93 90 93 98 99 97 100 99 94 83 84 87 89 87 81 72 71 74
87 90 93 93 94 99 96 99 99 100 100 91 92 81 76 79 81 78 69 65 68 69
90 91 92 94 97 100 100 100 100 100 96 88 84 85 70 63 57 58 56 54 67 78

GFSNIL_sfc_rhum_081.txt.gz
RH
98 97 94 92 93 92 90 90 83 82 81 81 80 82 83 87 89 91 94 94 96 98
78 86 86 88 89 94 89 81 80 78 77 78 80 80 82 86 86 90 93 95 97 98
85 83 77 77 84 83 79 75 78 74 74 76 78 81 84 88 86 91 94 94 96 98
88 87 85 82 76 74 75 75 78 74 78 78 80 82 83 87 86 89 91 91 94 96
89 89 89 85 82 73 74 72 73 76 78 78 80 84 87 90 90 91 92 92 94 95
90 90 90 89 84 82 80 83 84 83 84 83 84 86 88 90 92 92 93 92 93 93
90 90 90 89 87 86 87 88 88 87 87 86 87 88 89 91 93 94 93 93 94 94
90 90 90 90 90 90 89 88 89 89 89 89 87 84 91 90 88 92 92 91 92 95
91 91 92 92 92 92 92 92 91 91 91 92 85 77 77 84 89 90 91 94 96 92
91 91 92 93 94 94 94 94 94 94 94 94 93 82 82 82 94 96 97 98 95 84
91 91 93 94 94 95 95 96 96 94 94 94 92 84 81 84 99 100 100 98 92 85
91 92 94 95 95 95 96 96 96 94 97 99 95 85 85 87 97 99 96 89 81 68
91 92 93 94 95 95 95 95 99 100 100 93 97 86 85 87 90 90 84 69 68 70
92 92 92 94 96 96 100 100 100 100 98 98 94 92 84 84 80 83 81 76 76 78

GFSNIL_sfc_rhum_087.txt.gz
RH
91 93 92 89 91 90 91 89 86 82 80 80 82 81 79 76 80 80 85 81 82 83
64 81 88 90 89 90 87 86 82 78 78 78 76 76 75 76 78 76 81 83 84 84
64 68 76 83 84 88 86 81 79 75 71 70 70 72 74 76 79 75 80 81 79 80
70 72 74 75 78 80 78 76 73 70 68 69 69 68 68 71 72 72 75 77 77 78
78 78 76 76 75 74 74 70 68 68 68 69 70 68 68 71 72 71 75 78 78 78
80 79 78 76 75 73 72 71 71 70 70 72 75 74 72 72 73 76 78 80 80 80
79 79 78 77 76 75 72 73 73 72 73 76 75 75 75 76 77 78 78 80 80 78
80 79 79 79 78 77 75 76 76 77 77 75 74 74 78 78 78 78 80 81 80 82
82 81 81 80 79 78 79 79 79 79 80 83 75 79 81 80 80 82 82 82 82 84
84 83 84 82 83 83 83 82 84 83 82 82 80 82 80 80 81 90 91 90 88 89
87 86 86 86 86 85 84 87 91 86 85 85 82 82 82 77 96 100 100 98 90 88
88 88 87 89 89 88 88 93 93 88 93 93 85 81 80 82 93 94 90 85 81 80
88 87 89 88 91 94 91 91 96 100 95 88 86 84 83 84 90 90 85 83 80 83
90 91 88 91 93 97 100 100 100 99 95 84 80 80 85 81 92 90 87 83 76 69

GFSNIL_sfc_rhum_090.txt.gz
RH
80 78 78 76 79 77 80 80 80 90 89 81 80 83 84 83 80 79 82 80 79 76
59 74 76 78 75 77 77 78 77 79 79 76 76 76 72 65 65 65 71 73 74 70
45 48 53 63 73 75 73 74 74 74 71 69 67 68 65 65 66 67 72 74 71 72
50 52 53 55 62 71 73 71 69 66 65 63 62 59 59 62 62 61 63 64 63 64
56 56 55 53 59 63 67 65 63 61 60 59 58 56 56 59 59 58 62 64 64 64
58 57 56 57 58 60 61 60 59 58 58 57 59 57 55 55 56 57 58 60 62 63
61 62 60 60 60 60 58 58 58 55 55 58 57 57 56 57 58 60 59 63 63 63
62 64 64 64 62 60 58 58 57 57 58 58 58 59 63 63 62 63 64 66 65 69
62 66 66 65 64 63 64 62 61 62 63 66 59 78 77 67 61 63 64 66 67 66
62 66 68 66 66 67 66 64 67 66 65 65 64 81 81 81 67 73 74 73 72 74
66 67 68 70 69 67 68 72 74 70 67 68 68 83 82 83 82 98 99 94 77 74
68 70 71 74 74 72 74 78 78 75 80 79 73 84 84 80 82 88 87 74 68 68
70 73 73 74 75 80 78 80 85 95 84 79 75 83 82 80 78 77 78 68 66 83
68 73 76 80 79 86 97 95 98 97 89 74 71 69 84 82 77 78 78 75 68 66